Other Public Products
Issued by NWS Grand Forks, ND

Home | Current Version | Previous Version | Graphics & Text | Print | Product List | Glossary On
Versions: 1 2 3 4 5 6 7 8 9 10 11 12 13 14 15 16 17 18 19 20 21 22 23 24 25 26 27 28 29 30 31 32 33 34 35 36 37 38 39 40 41 42 43 44 45 46 47 48 49 50
875
FPUS83 KFGF 180310
OPUFGF
PRAIRIE TO PINES WEATHER ROUNDUP
NATIONAL WEATHER SERVICE EASTERN NORTH DAKOTA/GRAND FORKS ND
1000 PM CDT THU AUG 17 2017

 **SATELLITE DATA USED TO AUGMENT SKY COVER AT AUTOMATED STATIONS**
 *****  WEATHER ACROSS EASTERN NORTH DAKOTA  *****

CITY           SKY/WX    TMP DP  RH WIND       PRES   REMARKS
GRAND FORKS    FAIR      66  63  90 SW3       29.83R
GRAND FORKS AF PTCLDY    72  63  73 VRB1      29.90R
GRAND CITY NWS NOT AVBL
BUXTON           N/A     68  60  75 S2          N/A
DEVILS LAKE    FAIR      67  60  78 CALM      29.86S
FARGO          FAIR      65  60  84 CALM      29.84R
WAHPETON ARPT  FAIR      63  57  82 CALM      29.87R
$$

 *****  WEATHER ACROSS CENTRAL AND WESTERN NORTH DAKOTA  *****

CITY           SKY/WX    TMP DP  RH WIND       PRES   REMARKS
JAMESTOWN      FAIR      64  58  80 SE3       29.87R
BISMARCK       FAIR      70  58  65 SE7       29.84R
MINOT          FAIR      69  56  62 E9        29.83R
MINOT AFB      FAIR      70  57  63 E9        29.83R
GARRISON         N/A     67  61  81 S3        29.82R
WILLISTON      FAIR      73  54  51 N18       29.90R
DICKINSON      FAIR      64  49  57 W6        29.88S
HETTINGER      FAIR      67  47  48 W3        29.92S
$$

 *****  OTHER OBSERVATIONS NORTHEAST NORTH DAKOTA  *****

CITY           SKY/WX    TMP DP  RH WIND       PRES   REMARKS
WALHALLA       FAIR      63  63 100 CALM      29.84S
LANGDON        FAIR      61  61 100 CALM      29.88R
CAVALIER       FAIR      63  61  94 CALM      29.84R
GRAFTON        FAIR      64  64 100 CALM      29.85S
CANDO          FAIR      63  63 100 E5        29.88S
FORT TOTTEN    NOT AVBL
ROLLA          FAIR      59  59 100 CALM      29.88S
RUGBY          FAIR      66  61  82 E8        29.86R
 ***** THE ABOVE OBSERVATIONS ARE NON NWS ARE NOT QUALITY
        CONTROLLED AND MAY MIS-REPORT RAIN FOR SNOW...
$$

 *****  OTHER OBSERVATIONS SOUTHEAST NORTH DAKOTA *****

CITY           SKY/WX    TMP DP  RH WIND       PRES   REMARKS
COOPERSTOWN    FAIR      64  63  94 CALM      29.88R
VALLEY CITY      N/A     64  64 100 CALM      29.89R
OAKES          NOT AVBL
GWINNER        CLEAR     63  63 100 CALM      29.88R
BUFFALO          N/A     65  58  76 NE7         N/A
WYNDMERE       NOT AVBL
 ***** THE ABOVE OBSERVATIONS ARE NON NWS ARE NOT QUALITY
       CONTROLLED AND MAY MIS-REPORT RAIN FOR SNOW...
$$

  *****  WEATHER ACROSS NORTHERN MINNESOTA  *****

CITY           SKY/WX    TMP DP  RH WIND       PRES   REMARKS
FLAG ISLAND    FAIR      68  57  68 CALM      29.81R HAZE
WARROAD        FAIR      64  61  88 NW3       29.83S
ROSEAU         FAIR      63  57  82 CALM      29.83S
HALLOCK        FAIR      64  55  72 CALM      29.83R
THF RVR FALLS  FAIR      63  57  82 CALM      29.86R HAZE
HALSTAD        NOT AVBL
FOSSTON        FAIR      57  54  88 CALM      29.86S
BAUDETTE       FAIR      59  58  96 CALM      29.82R
WASKISH        FAIR      57  55  94 CALM      29.83S
CROOKSTON      FAIR      66  57  72 CALM      29.85R
$$
  *****  WEATHER ACROSS CENTRAL AND WEST MINNESOTA  *****

CITY           SKY/WX    TMP DP  RH WIND       PRES   REMARKS
BEMIDJI        FAIR      58  57  96 CALM      29.85S
PARK RAPIDS    FAIR      61  57  87 W5        29.85S
WADENA         FAIR      59  59 100 CALM      29.86R
DETROIT LAKES  FAIR      64  59  82 CALM      29.88S
MOORHEAD       FAIR      66  61  82 CALM      29.86R
FERGUS FALLS   FAIR      64  61  88 CALM      29.86R
ELBOW LAKE     FAIR      64  62  90 CALM      29.88R
MORRIS MN      FAIR      64  63  94 CALM      29.87R
STAPLES        FAIR      59  57  94 CALM      29.86R
WHEATON        FAIR      63  59  88 CALM      29.89R
$$
  *****  WEATHER ELSEWHERE ACROSS MINNESOTA  *****

CITY           SKY/WX    TMP DP  RH WIND       PRES   REMARKS
DULUTH         MOCLDY    60  60 100 NW12      29.79R
INTRNTL FALLS  FAIR      55  54  96 CALM      29.82S
ELY            CLOUDY    61  57  88 NW9       29.79S
CLOQUET        CLOUDY    63  57  82 NW8       29.81S
BRAINERD       FAIR      59  56  89 CALM      29.84S
HIBBING        FAIR      57  56  96 NW7       29.81S
ALEXANDRIA     FAIR      63  59  87 NW5       29.89R
SAINT CLOUD    FAIR      60  59  96 CALM      29.85R
MINNEAPOLIS    FAIR      69  59  70 NW10      29.84R
$$

  *****  WEATHER ACROSS SOUTH DAKOTA  *****

CITY           SKY/WX    TMP DP  RH WIND       PRES   REMARKS
SIOUX FALLS    FAIR      65  62  90 CALM      29.90R
BROOKINGS      FAIR      66  59  78 SE3       29.91R
WATERTOWN      FAIR      65  58  78 CALM      29.90R
HURON          LGT RAIN  72  59  63 NW28G43   29.94R
SISSETON         N/A     63  61  93 CALM      29.87R
ABERDEEN       FAIR      66  62  87 S6        29.88R
MITCHELL       FAIR      70  61  73 SE9       29.86R
PIERRE         FAIR      70  58  65 E18       29.84F
MOBRIDGE       FAIR      70  60  70 SE9       29.85R
RAPID CITY     FAIR      61  53  75 W7        29.97R
$$

  *****  SOME WEATHER IN NEARBY STATES *****

CITY           SKY/WX    TMP DP  RH WIND       PRES   REMARKS
GLASGOW MT     FAIR      69  40  34 NE8       29.92R
GREAT FALLS MT MOCLDY    73  37  27 E6        30.02R
CHEYENNE WY    FAIR      67  42  40 W7        30.16R
SCOTTSBLUFF NE FAIR      71  48  43 N18       30.03R
OMAHA NE       FAIR      71  62  73 E3        29.91R
DES MOINES IA  FAIR      72  60  66 W5        29.89R
DAVENPORT IA   FAIR      70  64  81 W7        29.86R
CHICAGO IL     CLOUDY    75  62  64 W14       29.78R
EAU CLAIRE WI  CLOUDY    64  61  90 NW9       29.78R
LA CROSSE WI   CLOUDY    69  65  86 NW3       29.78R
$$

  *****  SOME NATIONAL WEATHER *****

CITY           SKY/WX    TMP DP  RH WIND       PRES   REMARKS
LA GUARDIA NY  MOCLDY    75  72  90 S8        29.98R
RALEIGH NC     FAIR      77  74  90 S7        29.99S
ATLANTA GA     FAIR      81  72  74 SW6       30.04S
NEW ORLEANS LA MOCLDY    81  77  88 S6        30.03R
OKLAHOMA CITY  FAIR      76  69  79 SE3       30.01R
ALBUQUERQUE NM FAIR      82  31  15 SE5       30.16R
SALT LAKE CITY FAIR      85  37  18 CALM      30.07R
LOS ANGELES CA FAIR      67  63  87 W13       29.97R
BOISE ID       FAIR      79  34  19 NW5       30.03R
SEATTLE WA     FAIR      72  54  53 W5        30.14S
$$

*** WEATHER ACROSS MANITOBA...SASKATCHEWAN AND ONTARIO ***
                ***ONTARIO***

CITY           SKY/WX    TMP DP  RH WIND       PRES   REMARKS
GERALDTON      LGT RAIN  57  57 100 NE12      29.75S
THUNDER BAY    MOCLDY    63  59  88 N6        29.67R
SIOUX LOOKOUT  PTCLDY    55  54  94 CALM      29.83R
TORONTO        CLOUDY    68  66  94 VRB2      29.75F
BIG TROUT LK   CLOUDY    68  55  64 S8        29.78S
PICKLE LAKE    NOT AVBL
DRYDEN         CLEAR     59  55  88 E2        29.83S
KENORA         PTCLDY    70  55  60 NW6       29.82S
$$
                *** MANITOBA***

CITY           SKY/WX    TMP DP  RH WIND       PRES   REMARKS
BRANDON        MOCLDY    61  55  82 SW3       29.85S
DAUPHIN        CLEAR     64  57  77 W9        29.81R
ISLAND LAKE    MOCLDY    68  57  68 SW9       29.76S
PILOT MOUND      N/A     63  54  72 N3          N/A
THE PAS        PTCLDY    61  54  77 S5        29.75S
THOMPSON       PTCLDY    68  52  56 S6        29.69R
WINNIPEG       CLEAR     64  54  68 CALM      29.82R
LYNN LAKE      PTCLDY    59  54  82 MISG      29.69R
CHURCHILL      PTCLDY    63  61  94 SE12      29.62S
GILLAM         PTCLDY    64  48  55 SW5       29.69R
$$
                ***SASKATCHEWAN***

CITY           SKY/WX    TMP DP  RH WIND       PRES   REMARKS
ESTEVAN        CLOUDY    66  57  72 N6        29.90R
KINDERSLEY     MOCLDY    63  48  59 NW6       29.94S
LLOYDMINSTER   PTCLDY    57  52  82 W7        29.91R
PRINCE ALBERT  NOT AVBL
REGINA         CLEAR     61  45  55 W8        29.92R SMOKE
YORKTON        CLEAR     64  54  68 W8        29.87R
N. BATTLEFORD  CLEAR     61  54  77 W3        29.91S



USA.gov is the U.S. government's official web portal to all federal, state and local government web resources and services.